EW0908 Khalkis GR current weather conditions

sailwx.info

Wind from 035 at 4 knots gusting 11

Air temperature 11.7° C
Dewpoint -6.2° C

Last reported at 2020-Jan-22 13:08 UTC.
Time now 2020-Jan-22 14:11 UTC

Location: N 38°28' E 023°36'.
View on Google Maps.

See reports from other nearby stations

  
Tides and Currents Weather Stations Pressure Air Temp Water Temp Dewpoint Dewpoint Depression Visibility Wind Speed Wind Dir Waves Ship Positions
date/time (UTC)wind fromknots sea level pressurealtimeterstation pressurevisibilityair tempwater tempwave heightnotes
2020-Jan-22 13:08 035 4 gusting 11 11.7
2020-Jan-22 13:03 002 5 gusting 11 11.7
2020-Jan-22 12:58 042 5 gusting 8 11.7
2020-Jan-22 12:53 021 6 gusting 8 11.7
2020-Jan-22 12:48 072 2 gusting 6 11.7
2020-Jan-22 12:43 023 4 gusting 6 11.7
2020-Jan-22 12:38 011 3 gusting 4 11.7
2020-Jan-22 12:33 026 1 gusting 4 12.2
2020-Jan-22 12:28 030 2 gusting 6 12.2
2020-Jan-22 12:23 056 5 gusting 6 12.2
2020-Jan-22 12:18 041 2 gusting 8 12.8
2020-Jan-22 12:13 043 5 gusting 8 12.8
2020-Jan-22 12:08 020 6 gusting 8 12.8
2020-Jan-22 12:03 286 0 gusting 4 12.8
2020-Jan-22 11:58 005 0 gusting 4 12.8
2020-Jan-22 11:53 340 0 gusting 6 12.2
2020-Jan-22 11:48 332 2 gusting 4 12.2
2020-Jan-22 11:43 297 2 gusting 4 11.7
2020-Jan-22 11:38 308 0 gusting 1 11.7
2020-Jan-22 11:33 347 1 gusting 1 11.7
2020-Jan-22 11:28 322 0 gusting 4 11.7
2020-Jan-22 11:23 271 0 gusting 4 11.7
2020-Jan-22 11:18 029 1 gusting 6 11.1
2020-Jan-22 11:13 263 1 gusting 6 11.1
2020-Jan-22 11:08 347 5 gusting 11 11.1
2020-Jan-22 11:03 342 6 gusting 11 11.1
2020-Jan-22 10:58 324 6 gusting 11 11.1
2020-Jan-22 10:53 011 5 gusting 11 11.1
2020-Jan-22 10:48 358 7 gusting 11 11.7
2020-Jan-22 10:43 355 2 gusting 11 11.7
2020-Jan-22 10:38 11.7
2020-Jan-22 10:33 007 3 gusting 8 11.7
2020-Jan-22 10:28 314 3 gusting 8 11.1
2020-Jan-22 10:23 008 3 gusting 8 11.1
2020-Jan-22 10:18 279 10.6
2020-Jan-22 10:13 348 1 gusting 6 10.6
2020-Jan-22 10:08 346 4 gusting 8 10.6
2020-Jan-22 10:03 344 2 gusting 6 10.6
2020-Jan-22 09:58 312 4 gusting 8 10.6
2020-Jan-22 09:53 338 6 gusting 8 10.6
2020-Jan-22 09:48 317 4 gusting 8 10.6
2020-Jan-22 09:43 350 6 gusting 11 10.0
2020-Jan-22 09:38 343 6 gusting 11 10.0
2020-Jan-22 09:33 306 4 gusting 11 10.0
2020-Jan-22 09:28 344 5 gusting 6 10.0
2020-Jan-22 09:23 285 5 gusting 8 10.0
2020-Jan-22 09:18 286 5 gusting 8 10.0
2020-Jan-22 09:13 334 4 gusting 8 10.0
2020-Jan-22 09:08 319 4 gusting 11 10.0
2020-Jan-22 09:03 358 4 gusting 11 10.0
2020-Jan-22 08:58 301 2 gusting 8 10.0
2020-Jan-22 08:53 318 2 gusting 6 10.0
2020-Jan-22 08:48 308 1 gusting 6 9.4
2020-Jan-22 08:43 325 3 gusting 6 9.4
2020-Jan-22 08:38 005 2 gusting 6 9.4
2020-Jan-22 08:33 298 1 gusting 6 9.4
2020-Jan-22 08:28 323 2 gusting 4 8.9
2020-Jan-22 08:23 253 1 gusting 6 8.9
2020-Jan-22 08:18 315 2 gusting 8 8.9
2020-Jan-22 08:13 006 1 gusting 4 8.9
2020-Jan-22 08:08 056 0 gusting 1 8.9
2020-Jan-22 08:03 183 0 gusting 8 8.9
2020-Jan-22 07:58 274 4 gusting 11 8.9
2020-Jan-22 07:53 333 6 gusting 11 8.3
2020-Jan-22 07:48 279 5 gusting 8 8.3
2020-Jan-22 07:43 246 7 gusting 13 8.3
2020-Jan-22 07:38 276 6 gusting 13 8.3
2020-Jan-22 07:33 279 5 gusting 8 8.3
2020-Jan-22 07:28 278 3 gusting 8 8.3
2020-Jan-22 07:23 309 2 gusting 6 8.3
2020-Jan-22 07:18 285 1 gusting 4 8.3
2020-Jan-22 07:13 327 0 gusting 6 8.3
2020-Jan-22 07:08 290 2 gusting 6 8.3
2020-Jan-22 07:03 302 0 gusting 4 7.8
2020-Jan-22 06:58 278 0 gusting 4 7.8
2020-Jan-22 06:53 253 7.8
2020-Jan-22 06:48 282 1 gusting 4 7.2
2020-Jan-22 06:43 192 0 gusting 4 7.2
2020-Jan-22 06:38 220 1 gusting 4 7.2
2020-Jan-22 06:33 224 1 gusting 4 6.7
2020-Jan-22 06:28 339 0 gusting 4 6.7
2020-Jan-22 06:23 131 0 gusting 1 6.7
2020-Jan-22 06:18 199 0 gusting 1 6.1
2020-Jan-22 06:13 198 6.1
2020-Jan-22 06:08 295 3 gusting 8 5.6
2020-Jan-22 06:03 314 4 gusting 8 5.6
2020-Jan-22 05:58 328 4 gusting 8 5.0
2020-Jan-22 05:53 249 1 gusting 4 5.0
2020-Jan-22 05:48 230 0 gusting 1 5.0
2020-Jan-22 05:43 201 1 gusting 6 5.0
2020-Jan-22 05:38 164 2 gusting 6 5.0
2020-Jan-22 05:33 266 5.0
2020-Jan-22 05:28 174 0 gusting 1 5.0
2020-Jan-22 05:23 184 5.0
2020-Jan-22 05:18 088 0 gusting 1 5.0
2020-Jan-22 05:13 116 1 gusting 4 5.0
2020-Jan-22 05:08 194 0 gusting 4 5.0
2020-Jan-22 05:03 124 2 gusting 4 5.6
2020-Jan-22 04:58 108 0 gusting 1 5.0
2020-Jan-22 04:53 150 1 gusting 4 5.0
2020-Jan-22 04:48 152 1 gusting 4 5.0
2020-Jan-22 04:43 150 1 gusting 4 5.0
2020-Jan-22 04:38 132 1 gusting 4 5.0
2020-Jan-22 04:33 149 2 gusting 4 5.0
2020-Jan-22 04:28 274 1 gusting 4 5.0
2020-Jan-22 04:23 098 2 gusting 4 5.0
2020-Jan-22 04:18 135 2 gusting 4 5.0
2020-Jan-22 04:13 118 1 gusting 6 5.6
2020-Jan-22 04:08 107 1 gusting 6 5.6
2020-Jan-22 04:03 079 0 gusting 1 5.6
2020-Jan-22 03:58 277 5.6
2020-Jan-22 03:53 103 0 gusting 4 5.6
2020-Jan-22 03:48 121 1 gusting 4 5.6
2020-Jan-22 03:43 186 1 gusting 4 5.0
2020-Jan-22 03:38 153 1 gusting 4 5.0
2020-Jan-22 03:33 188 1 gusting 6 5.0
2020-Jan-22 03:28 174 2 gusting 6 5.0
2020-Jan-22 03:23 149 0 gusting 4 5.6
2020-Jan-22 03:18 139 2 gusting 4 5.6
2020-Jan-22 03:13 181 5.6
2020-Jan-22 03:08 132 1 gusting 4 5.0
2020-Jan-22 03:03 073 1 gusting 4 5.0
2020-Jan-22 02:58 144 1 gusting 4 5.0
2020-Jan-22 02:53 205 1 gusting 6 5.0
2020-Jan-22 02:48 138 1 gusting 4 5.0
2020-Jan-22 02:43 335 5.0
2020-Jan-22 02:38 275 0 gusting 4 5.0
2020-Jan-22 02:33 154 1 gusting 4 5.0
2020-Jan-22 02:28 223 1 gusting 4 5.0
2020-Jan-22 02:23 010 0 gusting 4 5.0
2020-Jan-22 02:18 331 1 gusting 4 5.0
2020-Jan-22 02:13 163 0 gusting 1 5.0
2020-Jan-22 02:08 195 5.0
2020-Jan-22 02:03 074 1 gusting 4 5.6
2020-Jan-22 01:58 078 0 gusting 4 5.6
2020-Jan-22 01:53 172 5 gusting 8 6.1
2020-Jan-22 01:48 148 5 gusting 6 6.7
2020-Jan-22 01:43 099 1 gusting 4 6.7
2020-Jan-22 01:38 065 0 gusting 4 6.7
2020-Jan-22 01:33 298 0 gusting 6 6.7
2020-Jan-22 01:28 311 2 gusting 6 6.7
2020-Jan-22 01:23 300 4 gusting 6 6.7
2020-Jan-22 01:18 305 2 gusting 8 7.2
2020-Jan-22 01:13 256 4 gusting 8 7.2
2020-Jan-22 01:08 284 1 gusting 6 7.2
2020-Jan-22 01:03 301 1 gusting 6 6.7
2020-Jan-22 00:58 356 6.7
2020-Jan-22 00:53 344 1 gusting 6 6.7
2020-Jan-22 00:48 008 3 gusting 8 6.7
2020-Jan-22 00:43 072 3 gusting 8 6.7
2020-Jan-22 00:38 025 3 gusting 6 6.1
2020-Jan-22 00:33 067 0 gusting 4 6.1
2020-Jan-22 00:28 355 6.1
2020-Jan-22 00:23 288 0 gusting 1 6.1
2020-Jan-22 00:18 323 0 gusting 4 5.6
2020-Jan-22 00:13 330 1 gusting 4 5.6
2020-Jan-22 00:08 032 0 gusting 1 5.6
2020-Jan-22 00:03 107 0 gusting 4 5.6
2020-Jan-21 23:58 104 5.0
2020-Jan-21 23:53 168 0 gusting 1 5.0
2020-Jan-21 23:48 336 5.0
2020-Jan-21 23:43 325 0 gusting 1 5.0
2020-Jan-21 23:38 161 5.0
2020-Jan-21 23:33 174 1 gusting 1 5.0
2020-Jan-21 23:28 172 1 gusting 1 5.0
2020-Jan-21 23:23 182 0 gusting 1 5.6
2020-Jan-21 23:18 147 2 gusting 4 5.6
2020-Jan-21 23:13 163 2 gusting 4 5.6
2020-Jan-21 23:08 150 1 gusting 4 5.6
2020-Jan-21 23:03 160 1 gusting 4 5.6
2020-Jan-21 22:58 203 5.6
2020-Jan-21 22:53 165 5.6
2020-Jan-21 22:48 173 1 gusting 4 5.6
2020-Jan-21 22:43 156 0 gusting 1 5.0
2020-Jan-21 22:38 257 5.0
2020-Jan-21 22:33 021 0 gusting 1 5.0
2020-Jan-21 22:28 122 0 gusting 1 5.0
2020-Jan-21 22:23 168 1 gusting 4 5.0
2020-Jan-21 22:18 248 5.6
2020-Jan-21 22:13 218 5.6
2020-Jan-21 22:08 210 0 gusting 1 5.6
2020-Jan-21 22:03 241 5.6
2020-Jan-21 21:58 179 1 gusting 4 5.6
2020-Jan-21 21:53 167 2 gusting 4 6.1
2020-Jan-21 21:48 177 6.1
2020-Jan-21 21:43 051 6.1
2020-Jan-21 21:38 076 5.6
2020-Jan-21 21:33 008 5.6
2020-Jan-21 21:28 115 1 gusting 4 5.6
2020-Jan-21 21:23 011 5.6
2020-Jan-21 21:18 299 5.6
2020-Jan-21 21:13 135 0 gusting 1 5.6
2020-Jan-21 21:08 303 5.6
2020-Jan-21 21:03 130 6.1
2020-Jan-21 20:58 166 0 gusting 1 6.1
2020-Jan-21 20:53 129 1 gusting 4 6.1
2020-Jan-21 20:48 160 0 gusting 1 6.1
2020-Jan-21 20:43 143 0 gusting 4 6.7
2020-Jan-21 20:38 132 2 gusting 6 6.7
2020-Jan-21 20:33 161 1 gusting 1 6.7
2020-Jan-21 20:28 026 0 gusting 4 6.7
2020-Jan-21 20:23 094 6.7
2020-Jan-21 20:18 311 6.7
2020-Jan-21 20:13 082 0 gusting 1 6.7
2020-Jan-21 20:08 067 1 gusting 4 6.7
2020-Jan-21 20:03 078 6.7
2020-Jan-21 19:58 100 2 gusting 4 6.7
2020-Jan-21 19:53 307 7.2
2020-Jan-21 19:48 039 7.2
2020-Jan-21 19:43 103 7.2
2020-Jan-21 19:38 112 1 gusting 4 7.2
2020-Jan-21 19:33 022 1 gusting 4 7.8
2020-Jan-21 19:28 039 1 gusting 4 7.8
2020-Jan-21 19:23 006 1 gusting 4 7.8
2020-Jan-21 19:18 357 0 gusting 4 7.8
2020-Jan-21 19:13 020 2 gusting 6 7.8
2020-Jan-21 19:08 020 0 gusting 4 7.8
2020-Jan-21 19:03 344 1 gusting 6 7.8
2020-Jan-21 18:58 325 3 gusting 6 7.8
2020-Jan-21 18:53 342 1 gusting 4 7.8
2020-Jan-21 18:48 341 2 gusting 6 7.8
2020-Jan-21 18:43 337 4 gusting 6 7.8
2020-Jan-21 18:38 337 1 gusting 6 7.8
2020-Jan-21 18:33 321 3 gusting 6 7.8
2020-Jan-21 18:28 322 3 gusting 8 7.8
2020-Jan-21 18:23 327 6 gusting 11 7.8
2020-Jan-21 18:18 308 6 gusting 8 7.8
2020-Jan-21 18:13 342 5 gusting 8 7.8
2020-Jan-21 18:08 343 3 gusting 8 7.8
2020-Jan-21 18:03 346 4 gusting 8 7.8
2020-Jan-21 17:58 330 4 gusting 8 7.8
2020-Jan-21 17:53 328 3 gusting 6 7.8
2020-Jan-21 17:48 307 4 gusting 8 7.8
2020-Jan-21 17:43 340 2 gusting 6 7.8
2020-Jan-21 17:38 316 3 gusting 11 7.8
2020-Jan-21 17:33 318 5 gusting 8 7.8
2020-Jan-21 17:28 286 5 gusting 6 8.3
2020-Jan-21 17:23 299 4 gusting 11 8.3
2020-Jan-21 17:18 299 5 gusting 8 8.3
2020-Jan-21 17:13 303 3 gusting 11 8.3
2020-Jan-21 17:08 275 0 gusting 8 8.3
2020-Jan-21 17:03 341 4 gusting 11 8.3
2020-Jan-21 16:58 005 4 gusting 8 8.3
2020-Jan-21 16:53 330 4 gusting 8 8.3
2020-Jan-21 16:48 341 2 gusting 8 8.3
2020-Jan-21 16:43 220 3 gusting 8 8.3
2020-Jan-21 16:38 232 1 gusting 6 8.3
2020-Jan-21 16:33 322 2 gusting 8 8.3
2020-Jan-21 16:28 323 0 gusting 11 8.3
2020-Jan-21 16:23 006 2 gusting 11 8.3
2020-Jan-21 16:18 025 2 gusting 6 8.3
2020-Jan-21 16:13 044 2 gusting 6 8.3
2020-Jan-21 16:08 115 2 gusting 8 8.3
2020-Jan-21 16:03 289 4 gusting 11 8.3
2020-Jan-21 15:58 272 2 gusting 8 8.3
2020-Jan-21 15:53 240 2 gusting 11 8.3
2020-Jan-21 15:48 240 4 gusting 8 8.3
2020-Jan-21 15:43 067 5 gusting 13 8.3
2020-Jan-21 15:38 008 4 gusting 11 8.3
2020-Jan-21 15:33 222 2 gusting 18 8.3
2020-Jan-21 15:28 007 6 gusting 11 8.9
2020-Jan-21 15:23 348 4 gusting 11 8.9
2020-Jan-21 15:18 140 4 gusting 13 8.9
2020-Jan-21 15:13 018 2 gusting 8 8.9
2020-Jan-21 15:08 004 8 gusting 18 8.9
2020-Jan-21 15:03 224 2 gusting 18 8.9
2020-Jan-21 14:58 314 6 gusting 18 8.9
2020-Jan-21 14:53 020 6 gusting 14 8.9
2020-Jan-21 14:48 023 2 gusting 18 8.9
2020-Jan-21 14:43 323 13 gusting 18 8.9
2020-Jan-21 14:38 318 5 gusting 14 8.9
2020-Jan-21 14:33 339 9 gusting 14 8.9
2020-Jan-21 14:28 275 6 gusting 14 8.9
2020-Jan-21 14:23 340 6 gusting 11 8.9
2020-Jan-21 14:18 043 6 gusting 14 8.9
2020-Jan-21 14:13 304 8 gusting 19 8.9
2020-Jan-21 14:08 331 3 gusting 18 8.9
2020-Jan-21 14:03 323 1 gusting 19 8.9
2020-Jan-21 13:58 323 15 gusting 19 8.9
2020-Jan-21 13:53 323 15 gusting 19 8.9
2020-Jan-21 13:48 001 6 gusting 13 8.9
2020-Jan-21 13:43 003 5 gusting 19 8.9
2020-Jan-21 13:38 319 9 gusting 19 8.9
2020-Jan-21 13:33 314 10 gusting 18 8.3
2020-Jan-21 13:28 332 10 gusting 19 8.3
2020-Jan-21 13:23 328 13 gusting 19 8.3
2020-Jan-21 13:18 338 7 gusting 14 8.3
2020-Jan-21 13:13 342 14 gusting 19 8.3
2020-Jan-21 13:08 277 6 gusting 18 8.3
2020-Jan-21 13:03 354 7 gusting 19 8.3
2020-Jan-21 12:58 323 11 gusting 19 8.3
2020-Jan-21 12:53 004 7 gusting 14 8.3
2020-Jan-21 12:48 314 7 gusting 18 8.3
2020-Jan-21 12:43 053 5 gusting 18 8.3
2020-Jan-21 12:38 314 6 gusting 19 8.3
2020-Jan-21 12:33 333 13 gusting 19 8.3
2020-Jan-21 12:28 010 9 gusting 19 8.3
2020-Jan-21 12:23 309 9 gusting 21 8.3
2020-Jan-21 12:18 024 11 gusting 21 8.3
2020-Jan-21 12:13 101 5 gusting 21 7.8
2020-Jan-21 12:08 048 7 gusting 24 7.8
2020-Jan-21 12:03 298 4 gusting 19 7.8
2020-Jan-21 11:58 041 8 gusting 14 7.8
2020-Jan-21 11:53 318 10 gusting 24 7.8
2020-Jan-21 11:48 333 5 gusting 14 7.8
2020-Jan-21 11:43 353 6 gusting 26 7.8
2020-Jan-21 11:38 331 19 gusting 26 7.8
2020-Jan-21 11:33 295 10 gusting 19 7.8
2020-Jan-21 11:28 318 8 gusting 21 7.8
2020-Jan-21 11:23 348 11 gusting 24 7.8
2020-Jan-21 11:18 072 7 gusting 21 7.8
2020-Jan-21 11:13 047 6 gusting 14 7.8
2020-Jan-21 11:08 310 12 gusting 18 7.8
2020-Jan-21 11:03 344 14 gusting 24 7.8
2020-Jan-21 10:58 012 10 gusting 21 7.8
2020-Jan-21 10:53 015 7 gusting 26 7.8
2020-Jan-21 10:48 311 10 gusting 24 7.8
2020-Jan-21 10:43 289 6 gusting 21 7.8
2020-Jan-21 10:38 026 7 gusting 24 7.8
2020-Jan-21 10:33 031 6 gusting 26 7.8
2020-Jan-21 10:28 009 8 gusting 26 7.8
2020-Jan-21 10:23 358 10 gusting 21 7.8
2020-Jan-21 10:18 347 6 gusting 21 7.8
2020-Jan-21 10:13 335 12 gusting 21 7.8
2020-Jan-21 10:08 271 9 gusting 21 7.8
2020-Jan-21 10:03 305 11 gusting 26 7.8
2020-Jan-21 09:58 344 13 gusting 26 7.8
2020-Jan-21 09:53 311 6 gusting 13 7.8
2020-Jan-21 09:48 011 13 gusting 19 7.8
2020-Jan-21 09:43 006 11 gusting 19 7.8
2020-Jan-21 09:38 217 8 gusting 19 7.8
2020-Jan-21 09:33 351 12 gusting 26 7.8
2020-Jan-21 09:28 007 13 gusting 24 7.8
2020-Jan-21 09:23 344 13 gusting 24 7.8
2020-Jan-21 09:18 354 12 gusting 21 7.8
2020-Jan-21 09:13 317 11 gusting 21 7.8
2020-Jan-21 09:08 006 15 gusting 24 7.8
2020-Jan-21 09:03 357 7 gusting 24 7.8
2020-Jan-21 08:58 357 10 gusting 21 7.8
2020-Jan-21 08:53 354 12 gusting 24 7.8
2020-Jan-21 08:48 358 11 gusting 24 7.8
2020-Jan-21 08:43 029 7 gusting 21 7.8
2020-Jan-21 08:38 327 12 gusting 21 7.8
2020-Jan-21 08:33 357 11 gusting 24 7.8
2020-Jan-21 08:28 033 11 gusting 18 7.8
2020-Jan-21 08:23 037 6 gusting 24 7.8
2020-Jan-21 08:18 333 8 gusting 19 7.8
2020-Jan-21 08:13 333 8 gusting 19 7.8
2020-Jan-21 08:08 351 4 gusting 14 7.8
2020-Jan-21 08:03 068 7 gusting 21 7.8
2020-Jan-21 07:58 333 10 gusting 19 7.8
2020-Jan-21 07:53 317 8 gusting 21 7.8
2020-Jan-21 07:48 324 7 gusting 14 7.8
2020-Jan-21 07:43 299 7 gusting 18 7.8
2020-Jan-21 07:38 048 10 gusting 19 7.8
2020-Jan-21 07:33 306 6 gusting 21 7.8
2020-Jan-21 07:28 023 7 gusting 24 7.8
2020-Jan-21 07:23 355 8 gusting 21 7.8
2020-Jan-21 07:18 343 14 gusting 26 7.8
2020-Jan-21 07:13 342 9 gusting 26 7.8
2020-Jan-21 07:08 7.8
2020-Jan-21 07:03 004 9 gusting 21 7.8
2020-Jan-21 06:58 057 9 gusting 18 7.8
2020-Jan-21 06:53 351 7 gusting 24 7.8
2020-Jan-21 06:48 019 8 gusting 14 7.8
2020-Jan-21 06:43 337 11 gusting 21 7.8
2020-Jan-21 06:38 076 4 gusting 18 7.8
2020-Jan-21 06:33 325 7 gusting 21 7.8
2020-Jan-21 06:28 011 9 gusting 14 7.8
2020-Jan-21 06:23 035 8 gusting 24 7.8
2020-Jan-21 06:18 304 4 gusting 19 7.8
2020-Jan-21 06:13 028 11 gusting 19 7.8
2020-Jan-21 06:08 355 8 gusting 24 7.8
2020-Jan-21 06:03 353 6 gusting 26 7.8
2020-Jan-21 05:58 005 11 gusting 19 7.8
2020-Jan-21 05:53 331 10 gusting 18 7.8
2020-Jan-21 05:48 345 6 gusting 21 7.8
2020-Jan-21 05:43 343 6 gusting 21 7.8
2020-Jan-21 05:38 335 13 gusting 24 7.8
2020-Jan-21 05:33 354 6 gusting 19 7.8
2020-Jan-21 05:28 247 4 gusting 13 7.8
2020-Jan-21 05:23 334 4 gusting 14 7.8
2020-Jan-21 05:18 047 10 gusting 21 7.8
2020-Jan-21 05:13 358 11 gusting 21 7.8
2020-Jan-21 05:08 344 6 gusting 19 7.8
2020-Jan-21 05:03 004 6 gusting 21 8.3
2020-Jan-21 04:58 345 5 gusting 18 8.3
2020-Jan-21 04:53 023 7 gusting 27 8.3
2020-Jan-21 04:48 352 11 gusting 21 8.3
2020-Jan-21 04:43 276 6 gusting 19 8.3
2020-Jan-21 04:38 314 13 gusting 19 8.3
2020-Jan-21 04:33 322 4 gusting 13 8.3
2020-Jan-21 04:28 004 4 gusting 11 8.3
2020-Jan-21 04:23 251 2 gusting 18 8.3
2020-Jan-21 04:18 200 2 gusting 13 8.3
2020-Jan-21 04:13 033 5 gusting 14 8.3
2020-Jan-21 04:08 101 6 gusting 26 8.3
2020-Jan-21 04:03 349 10 gusting 24 8.3
2020-Jan-21 03:58 197 5 gusting 11 8.3
2020-Jan-21 03:53 297 4 gusting 18 8.3
2020-Jan-21 03:48 245 5 gusting 14 8.3
2020-Jan-21 03:43 009 6 gusting 14 8.3
2020-Jan-21 03:38 161 6 gusting 26 8.3
2020-Jan-21 03:33 295 10 gusting 21 8.3
2020-Jan-21 03:28 061 8 gusting 19 8.3
2020-Jan-21 03:23 355 11 gusting 26 8.3
2020-Jan-21 03:18 338 7 gusting 14 8.3
2020-Jan-21 03:13 330 11 gusting 26 8.3
2020-Jan-21 03:08 248 8 gusting 21 8.3
2020-Jan-21 03:03 347 17 gusting 27 8.3
2020-Jan-21 02:58 336 14 gusting 26 8.3
2020-Jan-21 02:53 350 6 gusting 18 8.3
2020-Jan-21 02:48 337 11 gusting 21 8.3
2020-Jan-21 02:43 313 10 gusting 21 8.3
2020-Jan-21 02:38 326 13 gusting 26 8.3
2020-Jan-21 02:33 212 3 gusting 24 8.3
2020-Jan-21 02:28 350 13 gusting 27 8.3
2020-Jan-21 02:23 353 13 gusting 27 8.3
2020-Jan-21 02:18 345 10 gusting 27 8.3
2020-Jan-21 02:13 004 12 gusting 21 8.3
2020-Jan-21 02:08 329 8 gusting 21 8.3
2020-Jan-21 02:03 342 13 gusting 31 8.3
2020-Jan-21 01:58 329 12 gusting 24 8.3
2020-Jan-21 01:53 312 12 gusting 19 8.3
2020-Jan-21 01:48 050 6 gusting 18 8.3
2020-Jan-21 01:43 333 10 gusting 21 8.3
2020-Jan-21 01:38 058 9 gusting 21 8.3
2020-Jan-21 01:33 307 13 gusting 26 8.3
2020-Jan-21 01:28 023 7 gusting 18 8.3
2020-Jan-21 01:23 291 8 gusting 24 8.3
2020-Jan-21 01:18 328 10 gusting 24 8.3
2020-Jan-21 01:13 001 8 gusting 19 8.3
2020-Jan-21 01:08 295 12 gusting 26 8.3
2020-Jan-21 01:03 357 10 gusting 21 8.3
2020-Jan-21 00:58 337 15 gusting 26 8.3
2020-Jan-21 00:53 350 14 gusting 26 8.3
2020-Jan-21 00:48 326 13 gusting 19 8.3
2020-Jan-21 00:43 086 6 gusting 19 8.3
2020-Jan-21 00:38 002 9 gusting 24 8.3
2020-Jan-21 00:33 010 6 gusting 19 8.3
2020-Jan-21 00:28 346 10 gusting 21 8.3
2020-Jan-21 00:23 020 8 gusting 27 8.3
2020-Jan-21 00:18 345 13 gusting 27 8.3
2020-Jan-21 00:13 069 9 gusting 21 8.3
2020-Jan-21 00:08 068 11 gusting 24 8.3
2020-Jan-21 00:03 249 5 gusting 18 8.3
2020-Jan-20 23:58 354 8 gusting 14 8.3
2020-Jan-20 23:53 344 13 gusting 24 8.3
2020-Jan-20 23:48 271 6 gusting 21 8.9
2020-Jan-20 23:43 337 10 gusting 19 8.9
2020-Jan-20 23:38 280 7 gusting 24 8.9
2020-Jan-20 23:33 343 8 gusting 21 8.9
2020-Jan-20 23:28 322 8 gusting 19 8.9
2020-Jan-20 23:23 333 6 gusting 18 8.9
2020-Jan-20 23:18 325 6 gusting 13 8.9
2020-Jan-20 23:13 076 7 gusting 19 8.9
2020-Jan-20 23:08 324 7 gusting 19 8.9
2020-Jan-20 23:03 059 5 gusting 14 8.9
2020-Jan-20 22:58 023 5 gusting 18 8.9
2020-Jan-20 22:53 355 5 gusting 18 8.9
2020-Jan-20 22:48 264 6 gusting 13 8.9
2020-Jan-20 22:43 094 4 gusting 18 8.9
2020-Jan-20 22:38 319 6 gusting 18 8.9
2020-Jan-20 22:33 036 8 gusting 21 8.9
2020-Jan-20 22:28 353 7 gusting 18 8.9
2020-Jan-20 22:23 320 9 gusting 24 8.9
2020-Jan-20 22:18 292 8 gusting 14 8.9
2020-Jan-20 22:13 296 6 gusting 19 8.9
2020-Jan-20 22:08 301 7 gusting 21 8.9
2020-Jan-20 22:03 312 8 gusting 27 8.9
2020-Jan-20 21:58 251 9 gusting 24 8.9
2020-Jan-20 21:53 003 12 gusting 21 8.9
2020-Jan-20 21:48 351 7 gusting 21 8.9
2020-Jan-20 21:43 341 10 gusting 21 8.9
2020-Jan-20 21:38 357 10 gusting 19 8.9
2020-Jan-20 21:33 345 12 gusting 24 8.9
2020-Jan-20 21:28 353 14 gusting 27 8.9
2020-Jan-20 21:23 001 10 gusting 21 8.9
2020-Jan-20 21:18 064 7 gusting 18 8.9
2020-Jan-20 21:13 326 8 gusting 14 8.9
2020-Jan-20 21:08 358 5 gusting 13 8.9
2020-Jan-20 21:03 031 6 gusting 24 8.9
2020-Jan-20 20:58 133 6 gusting 18 8.9
2020-Jan-20 20:53 023 7 gusting 13 8.9
2020-Jan-20 20:48 352 10 gusting 24 8.9
2020-Jan-20 20:43 320 10 gusting 24 8.9
2020-Jan-20 20:38 350 11 gusting 27 8.9
2020-Jan-20 20:33 323 10 gusting 26 8.9
2020-Jan-20 20:28 310 11 gusting 24 8.9
2020-Jan-20 20:23 066 10 gusting 19 8.9
2020-Jan-20 20:18 314 6 gusting 21 8.9
2020-Jan-20 20:13 328 7 gusting 14 8.9
2020-Jan-20 20:08 327 7 gusting 19 8.9
2020-Jan-20 20:03 078 7 gusting 21 8.9
2020-Jan-20 19:58 336 7 gusting 18 8.9
2020-Jan-20 19:53 336 11 gusting 26 8.9
2020-Jan-20 19:48 344 15 gusting 27 8.9
2020-Jan-20 19:43 169 6 gusting 14 8.9
2020-Jan-20 19:38 350 10 gusting 21 8.9
2020-Jan-20 19:33 060 6 gusting 14 8.9
2020-Jan-20 19:28 219 4 gusting 8 8.9
2020-Jan-20 19:23 337 6 gusting 26 8.9
2020-Jan-20 19:18 002 10 gusting 21 8.9
2020-Jan-20 19:13 305 4 gusting 13 8.9
2020-Jan-20 19:08 319 12 gusting 21 8.9
2020-Jan-20 19:03 046 6 gusting 14 8.9
2020-Jan-20 18:58 359 8 gusting 18 8.9
2020-Jan-20 18:53 344 8 gusting 19 8.9
2020-Jan-20 18:48 059 10 gusting 19 8.9
2020-Jan-20 18:43 313 8 gusting 18 8.9
2020-Jan-20 18:38 016 6 gusting 14 8.9
2020-Jan-20 18:33 039 6 gusting 19 8.9
2020-Jan-20 18:28 358 6 gusting 19 8.3
2020-Jan-20 18:23 070 5 gusting 11 8.3
2020-Jan-20 18:18 332 5 gusting 11 8.3
2020-Jan-20 18:13 320 4 gusting 14 8.3
2020-Jan-20 18:08 228 1 gusting 6 8.3
2020-Jan-20 18:03 158 3 gusting 14 8.3
2020-Jan-20 17:58 355 1 gusting 6 8.3
2020-Jan-20 17:53 245 2 gusting 6 8.3
2020-Jan-20 17:48 185 4 gusting 8 8.3
2020-Jan-20 17:43 002 3 gusting 14 8.3
2020-Jan-20 17:38 349 2 gusting 8 8.3
2020-Jan-20 17:33 204 1 gusting 11 8.3
2020-Jan-20 17:28 275 0 gusting 6 8.3
2020-Jan-20 17:23 020 4 gusting 11 8.3
2020-Jan-20 17:18 285 0 gusting 13 8.3
2020-Jan-20 17:13 001 7 gusting 13 8.3
2020-Jan-20 17:08 020 5 gusting 11 8.3
2020-Jan-20 17:03 024 5 gusting 11 8.3
2020-Jan-20 16:58 025 6 gusting 11 7.8
2020-Jan-20 16:53 075 2 gusting 13 7.8
2020-Jan-20 16:48 339 2 gusting 11 7.8
2020-Jan-20 16:43 327 2 gusting 11 7.8
2020-Jan-20 16:38 095 7.8
2020-Jan-20 16:33 304 1 gusting 4 7.2
2020-Jan-20 16:28 350 4 gusting 8 7.8
2020-Jan-20 16:23 349 0 gusting 6 7.8
2020-Jan-20 16:18 346 1 gusting 8 7.8
2020-Jan-20 16:13 013 4 gusting 11 7.8
2020-Jan-20 16:08 032 6 gusting 18 8.3
2020-Jan-20 16:03 021 11 gusting 18 8.3
2020-Jan-20 15:58 324 5 gusting 11 8.3
2020-Jan-20 15:53 333 1 gusting 13 8.3
2020-Jan-20 15:48 209 5 gusting 13 8.3
2020-Jan-20 15:43 190 2 gusting 8 8.3
2020-Jan-20 15:38 072 1 gusting 8 7.8
2020-Jan-20 15:33 335 3 gusting 14 7.8
2020-Jan-20 15:28 339 4 gusting 14 7.8
2020-Jan-20 15:23 042 5 gusting 11 7.8
2020-Jan-20 15:18 232 4 gusting 11 7.8
2020-Jan-20 15:13 015 4 gusting 14 7.8
2020-Jan-20 15:08 350 6 gusting 21 8.3
2020-Jan-20 15:03 120 4 gusting 13 8.3
2020-Jan-20 14:58 325 3 gusting 14 8.3
2020-Jan-20 14:53 114 4 gusting 14 8.3
2020-Jan-20 14:48 287 6 gusting 19 8.3
2020-Jan-20 14:43 029 4 gusting 13 8.3
2020-Jan-20 14:38 076 7 gusting 11 7.8
2020-Jan-20 14:33 143 4 gusting 8 7.8
2020-Jan-20 14:28 265 4 gusting 11 7.8
2020-Jan-20 14:23 017 5 gusting 11 7.8
2020-Jan-20 14:18 296 4 gusting 13 8.3
2020-Jan-20 14:13 356 6 gusting 19 8.3
2020-Jan-20 14:08 359 12 gusting 19 8.3
2020-Jan-20 14:03 024 10 gusting 14 8.3